Puyallup, WA

1:59 PM PDT on September 28, 2016 (GMT -0700)
Pierce County - Thun Field

Weather History for KPLU - March, 2013

Change the Weather History Date:

Sunday, March 3, 2013

  Actual Average (KTCM) Record (KTCM)
Temperature  
Mean Temperature 41 °F -  
Max Temperature 50 °F 48 °F 66 °F (1965)
Min Temperature 32 °F 32 °F 13 °F (1989)
Degree Days  
Heating Degree Days 24    
Moisture  
Dew Point 32 °F    
Average Humidity 77    
Maximum Humidity 100    
Minimum Humidity 37    
Precipitation  
Precipitation 0.00 in - - ()
Sea Level Pressure  
Sea Level Pressure 30.27 in    
Wind  
Wind Speed 1 mph (SW)    
Max Wind Speed 6 mph    
Max Gust Speed -    
Visibility 10 miles    
Events      
Averages and records for this station are not official NWS values.
T = Trace of Precipitation, MM = Missing Value Source: NWS Daily Summary

Daily Weather History Graph

Daily Weather History Graph

Search for Another Location

Airport or City:

Trip Planner

Search our weather history database for the weather conditions in past years. The results will help you decide how hot, cold, wet, or windy it might be!

Date:

Astronomy

Mar. 03, 2013 Rise Set
Actual Time 6:44 AM PST 5:58 PM PST
Civil Twilight 6:14 AM PST 6:28 PM PST
Nautical Twilight 5:38 AM PST 7:03 PM PST
Astronomical Twilight 5:03 AM PST 7:39 PM PST
Moon 12:07 AM PST (3/3) 9:38 AM PST (3/3)
Length of Visible Light 12h 14m
Length of Day
11h 13m
Waning Gibbous, 62% of the Moon is Illuminated
Mar 3
Waning Gibbous
Mar 4
Last Quarter
Mar 11
New
Mar 19
First Quarter
Mar 27
Full

Hourly Weather History & Observations

Time (PST) Temp. Windchill Dew Point Humidity Pressure Visibility Wind Dir Wind Speed Gust Speed Precip Events Conditions
12:15 AM 37.4 °F - 35.6 °F 93% 30.22 in 10.0 mi Calm Calm - N/A   Mostly Cloudy
12:35 AM 35.6 °F 32.8 °F 35.6 °F 100% 30.22 in 10.0 mi SW 3.5 mph - N/A   Scattered Clouds
1:15 AM 35.6 °F 32.8 °F 35.6 °F 100% 30.23 in 10.0 mi SSW 3.5 mph - N/A   Mostly Cloudy
1:35 AM 35.6 °F 31.7 °F 35.6 °F 100% 30.23 in 10.0 mi SSW 4.6 mph - N/A   Mostly Cloudy
1:55 AM 35.6 °F - 33.8 °F 93% 30.24 in 10.0 mi Calm Calm - N/A   Mostly Cloudy
2:15 AM 35.6 °F - 33.8 °F 93% 30.24 in 10.0 mi Calm Calm - N/A   Overcast
2:35 AM 35.6 °F 32.8 °F 33.8 °F 93% 30.24 in 10.0 mi SSW 3.5 mph - N/A   Overcast
2:55 AM 35.6 °F 32.8 °F 33.8 °F 93% 30.24 in 10.0 mi South 3.5 mph - N/A   Mostly Cloudy
3:15 AM 35.6 °F - 33.8 °F 93% 30.24 in 10.0 mi Calm Calm - N/A   Mostly Cloudy
3:35 AM 35.6 °F - 33.8 °F 93% 30.24 in 10.0 mi Calm Calm - N/A   Mostly Cloudy
4:15 AM 35.6 °F - 33.8 °F 93% 30.24 in 10.0 mi Calm Calm - N/A   Mostly Cloudy
4:35 AM 35.6 °F - 33.8 °F 93% 30.24 in 10.0 mi Calm Calm - N/A   Mostly Cloudy
4:55 AM 35.6 °F - 33.8 °F 93% 30.25 in 10.0 mi Calm Calm - N/A   Mostly Cloudy
5:15 AM 35.6 °F - 33.8 °F 93% 30.25 in 10.0 mi Calm Calm - N/A   Overcast
5:35 AM 32.0 °F - 32.0 °F 100% 30.26 in 10.0 mi Calm Calm - N/A   Mostly Cloudy
5:55 AM 33.8 °F - 32.0 °F 93% 30.26 in 10.0 mi Calm Calm - N/A   Overcast
6:15 AM 32.0 °F 28.7 °F 32.0 °F 100% 30.26 in 10.0 mi SSE 3.5 mph - N/A   Mostly Cloudy
6:35 AM 32.0 °F - 32.0 °F 100% 30.26 in 10.0 mi Calm Calm - N/A   Overcast
6:55 AM 35.6 °F - 33.8 °F 93% 30.27 in 10.0 mi Calm Calm - N/A   Overcast
7:15 AM 33.8 °F - 33.8 °F 100% 30.27 in 10.0 mi Calm Calm - N/A   Mostly Cloudy
7:35 AM 37.4 °F - 33.8 °F 87% 30.28 in 10.0 mi Calm Calm - N/A   Mostly Cloudy
7:55 AM 37.4 °F - 35.6 °F 93% 30.28 in 10.0 mi Calm Calm - N/A   Overcast
8:15 AM 37.4 °F - 35.6 °F 93% 30.28 in 10.0 mi Calm Calm - N/A   Overcast
8:35 AM 39.2 °F - 35.6 °F 87% 30.28 in 10.0 mi Calm Calm - N/A   Mostly Cloudy
8:55 AM 39.2 °F - 35.6 °F 87% 30.28 in 10.0 mi Calm Calm - N/A   Mostly Cloudy
9:15 AM 39.2 °F - 35.6 °F 87% 30.28 in 10.0 mi Calm Calm - N/A   Mostly Cloudy
9:35 AM 39.2 °F - 33.8 °F 81% 30.28 in 10.0 mi Calm Calm - N/A   Overcast
9:55 AM 39.2 °F - 33.8 °F 81% 30.28 in 10.0 mi Calm Calm - N/A   Mostly Cloudy
10:15 AM 42.8 °F - 35.6 °F 76% 30.28 in 10.0 mi Calm Calm - N/A   Mostly Cloudy
10:35 AM 41.0 °F 38.0 °F 35.6 °F 81% 30.27 in 10.0 mi West 4.6 mph - N/A   Mostly Cloudy
10:55 AM 44.6 °F 43.1 °F 33.8 °F 66% 30.27 in 10.0 mi SW 3.5 mph - N/A   Mostly Cloudy
11:15 AM 44.6 °F 42.2 °F 35.6 °F 71% 30.27 in 10.0 mi West 4.6 mph - N/A   Mostly Cloudy
11:35 AM 44.6 °F - 32.0 °F 61% 30.27 in 10.0 mi Calm Calm - N/A   Mostly Cloudy
12:35 PM 46.4 °F - 32.0 °F 57% 30.27 in 10.0 mi Calm Calm - N/A   Mostly Cloudy
12:55 PM 48.2 °F - 32.0 °F 54% 30.27 in 10.0 mi SW 3.5 mph - N/A   Mostly Cloudy
1:15 PM 48.2 °F - 28.4 °F 46% 30.26 in 10.0 mi West 5.8 mph - N/A   Mostly Cloudy
1:35 PM 46.4 °F 44.3 °F 28.4 °F 50% 30.26 in 10.0 mi WNW 4.6 mph - N/A   Mostly Cloudy
1:55 PM 46.4 °F - 28.4 °F 50% 30.26 in 10.0 mi Calm Calm - N/A   Mostly Cloudy
2:15 PM 48.2 °F - 28.4 °F 46% 30.26 in 10.0 mi Calm Calm - N/A   Mostly Cloudy
2:35 PM 48.2 °F - 28.4 °F 46% 30.26 in 10.0 mi Calm Calm - N/A   Overcast
2:55 PM 50.0 °F - 28.4 °F 43% 30.26 in 10.0 mi Calm Calm - N/A   Mostly Cloudy
3:15 PM 50.0 °F - 26.6 °F 40% 30.26 in 10.0 mi Calm Calm - N/A   Mostly Cloudy
3:35 PM 50.0 °F - 26.6 °F 40% 30.26 in 10.0 mi Calm Calm - N/A   Mostly Cloudy
3:55 PM 50.0 °F - 24.8 °F 37% 30.26 in 10.0 mi NNE 3.5 mph - N/A   Mostly Cloudy
4:15 PM 48.2 °F - 26.6 °F 43% 30.26 in 10.0 mi Calm Calm - N/A   Overcast
4:35 PM 48.2 °F - 26.6 °F 43% 30.26 in 10.0 mi Calm Calm - N/A   Overcast
4:55 PM 46.4 °F - 28.4 °F 50% 30.26 in 10.0 mi Calm Calm - N/A   Mostly Cloudy
5:15 PM 46.4 °F - 28.4 °F 50% 30.26 in 10.0 mi Calm Calm - N/A   Mostly Cloudy
5:35 PM 46.4 °F - 28.4 °F 50% 30.26 in 10.0 mi Calm Calm - N/A   Mostly Cloudy
6:15 PM 42.8 °F - 30.2 °F 61% 30.27 in 10.0 mi Calm Calm - N/A   Mostly Cloudy
6:35 PM 42.8 °F - 30.2 °F 61% 30.27 in 10.0 mi Calm Calm - N/A   Mostly Cloudy
6:55 PM 41.0 °F - 30.2 °F 65% 30.28 in 10.0 mi Calm Calm - N/A   Mostly Cloudy
7:15 PM 41.0 °F - 32.0 °F 70% 30.28 in 10.0 mi Calm Calm - N/A   Mostly Cloudy
7:35 PM 41.0 °F - 32.0 °F 70% 30.28 in 10.0 mi Calm Calm - N/A   Mostly Cloudy
7:55 PM 39.2 °F - 32.0 °F 75% 30.28 in 10.0 mi Calm Calm - N/A   Mostly Cloudy
8:15 PM 37.4 °F - 32.0 °F 81% 30.28 in 10.0 mi Calm Calm - N/A   Mostly Cloudy
8:35 PM 37.4 °F - 32.0 °F 81% 30.28 in 10.0 mi Calm Calm - N/A   Mostly Cloudy
8:55 PM 37.4 °F - 32.0 °F 81% 30.28 in 10.0 mi Calm Calm - N/A   Mostly Cloudy
9:15 PM 35.6 °F - 32.0 °F 87% 30.29 in 10.0 mi Calm Calm - N/A   Mostly Cloudy
9:35 PM 35.6 °F - 32.0 °F 87% 30.29 in 10.0 mi Calm Calm - N/A   Mostly Cloudy
9:55 PM 35.6 °F - 32.0 °F 87% 30.29 in 10.0 mi Calm Calm - N/A   Mostly Cloudy
10:15 PM 33.8 °F - 32.0 °F 93% 30.29 in 10.0 mi Calm Calm - N/A   Mostly Cloudy
10:35 PM 32.0 °F - 32.0 °F 100% 30.29 in 10.0 mi Calm Calm - N/A   Mostly Cloudy
10:55 PM 32.0 °F - 30.2 °F 93% 30.29 in 10.0 mi Calm Calm - N/A   Mostly Cloudy
11:15 PM 32.0 °F - 30.2 °F 93% 30.29 in 10.0 mi Calm Calm - N/A   Mostly Cloudy
11:35 PM 32.0 °F - 32.0 °F 100% 30.29 in 10.0 mi Calm Calm - N/A   Mostly Cloudy
11:55 PM 32.0 °F - 30.2 °F 93% 30.29 in 10.0 mi Calm Calm - N/A   Scattered Clouds